CAPE
0 0 355 938 794 954 644 897 1160 1621 1861 2132 2109 2306 2496 2248 2151 2171 2218 2253 2200 2141 1993 1991 2115 1983 2076 1950 1894 1888 1664 1920 1810 1644 1574 1581 1632 1656 1864 1577 1474 1255 1530
0 19 585 1205 855 650 668 1012 1450 2124 1824 1938 2289 2616 2078 2478 2088 2150 2255 2079 2062 1914 1976 2061 2022 2177 1819 1947 1919 1806 1782 1980 1941 1673 1667 1480 1328 1387 1511 1612 1699 1383 1492
1 158 864 1708 1027 889 956 1192 1832 2435 2254 2289 2627 2346 2275 2568 1981 1996 2019 1916 1857 1927 1958 1267 1182 1414 1739 1829 1586 1404 1094 1637 1754 1508 1598 1121 1243 1488 894 737 1345 1546 1306
38 242 682 1737 1434 1105 1168 1722 2087 2465 2238 2319 2257 2325 2330 2353 2462 1927 2047 2172 1796 1286 1180 1619 1726 827 1168 1384 1459 1488 1335 1216 1237 1140 212 300 688 1133 1338 1166 1036 951 972
26 193 604 1165 1556 1232 1295 2096 2276 2514 2267 2286 2266 2238 2172 2202 1977 1790 2007 1939 1388 987 825 512 448 546 532 602 810 720 807 1663 1579 408 516 601 464 1185 1399 1344 1272 1006 1101
2 131 1289 1486 1207 1369 1467 1904 2483 2607 2648 2684 2558 2347 2221 1847 1888 2025 1999 2037 1565 1295 936 458 221 185 322 533 549 474 762 1016 334 73 257 609 781 1522 1214 1162 1291 1098 974
26 316 528 1815 2074 2300 1783 2393 2399 2415 2420 2627 2492 2304 2087 2160 2163 2042 2142 2332 2090 1829 1517 862 288 190 301 354 260 241 2047 721 323 279 190 128 329 656 556 1224 1283 985 875
148 425 853 1733 2114 1716 1828 2506 2206 2219 2406 2642 2383 1972 1960 2131 2089 2054 2122 2110 2140 2193 1930 1597 910 465 228 162 68 288 1898 1209 583 429 337 610 1296 1224 652 648 536 527 597
147 208 280 769 570 1379 2132 2353 2474 2296 2263 2061 2286 1826 1670 1851 1957 2066 2154 2103 2003 1972 2004 1998 1772 1424 832 492 107 840 1430 472 0 7 134 173 1052 856 1001 965 1152 1017 904
46 53 102 21 140 726 1236 2199 2217 2322 2133 1999 2307 1981 1433 1562 1805 1987 2288 2345 1923 1920 1984 1839 1828 1859 2003 1693 1222 1031 428 0 0 0 0 0 359 172 309 355 413 505 677
4 35 29 9 171 284 589 1117 2221 2001 1879 2306 1961 1627 1670 634 1010 1531 1807 1949 2030 2019 2153 2537 2821 2851 2430 2135 2189 2042 165 0 0 0 0 271 149 26 51 67 75 90 140
0 52 47 83 154 336 200 440 1236 1391 1536 1387 1653 1569 1157 865 829 1308 1651 2609 2456 2807 3182 3433 3413 3492 3189 1469 1104 2451 292 0 0 0 0 361 260 43 31 18 9 0 0
25 82 107 102 232 177 92 361 802 998 1250 1062 1110 1183 1094 1384 1090 1344 342 306 749 1389 1718 2086 2578 2210 1983 1554 1177 1058 614 0 0 0 25 511 391 107 89 77 65 38 18
97 97 72 43 265 146 306 590 762 974 1026 1034 1046 741 588 1051 393 271 39 249 665 1012 1025 1177 1253 1869 1494 1208 1039 1257 32 0 0 0 38 360 710 360 184 156 135 112 83
90 69 47 119 207 28 117 511 539 813 1030 1163 1079 843 767 802 448 225 298 422 657 985 831 522 625 1267 1101 743 694 791 10 3 0 0 20 482 743 949 497 357 263 199 165
170 108 206 273 185 22 170 533 618 759 1114 930 818 837 812 766 530 623 308 343 616 456 517 652 1083 1214 1239 1188 98 70 27 53 27 5 32 370 1280 1226 1085 841 598 455 388
277 431 297 261 240 369 446 557 634 748 1243 860 683 387 884 534 665 966 1101 914 409 83 577 980 1063 1255 1298 1225 394 364 75 106 101 74 73 176 712 1512 1440 1563 1561 1400 1000
152 152 225 417 495 351 385 326 551 834 1031 813 521 388 739 816 577 769 1241 542 523 292 599 881 1026 874 483 851 818 526 510 207 221 188 127 167 343 639 1322 1806 1823 1806 1832
69 73 131 248 290 159 179 305 517 454 585 739 350 286 666 781 984 478 1233 1296 878 115 619 1080 1355 945 849 1144 1330 618 525 472 451 486 445 256 214 393 379 1008 1901 1972 2087
42 35 56 223 136 191 210 53 329 639 400 554 360 198 792 534 969 701 972 1211 706 417 1580 947 1150 1226 1579 1632 1629 776 736 761 449 608 486 519 576 519 355 389 690 1415 2235
30 4 0 86 18 158 323 149 186 419 89 379 378 294 497 439 573 753 891 923 916 102 1171 1260 1204 1345 1235 1666 760 361 443 553 266 256 212 291 325 379 499 591 515 703 881
0 18 0 48 17 107 186 153 327 210 38 10 101 351 399 493 492 739 937 781 1091 479 690 724 818 1243 1300 1347 787 585 1032 1147 696 605 60 191 228 50 225 596 759 707 693
17 13 5 75 63 106 40 54 159 259 166 94 262 399 389 486 598 412 867 752 702 1036 1049 591 496 1197 1007 1201 1291 537 771 1010 449 427 585 605 397 198 334 119 150 1 57
68 45 57 162 143 251 70 57 124 196 275 260 77 515 553 431 597 293 248 412 525 660 928 663 709 1050 1333 1506 677 1100 834 500 376 113 362 592 670 628 402 107 0 0 0
62 117 85 334 163 297 261 91 41 108 139 142 219 653 488 442 432 632 286 301 786 794 737 767 1055 1599 1519 1409 1022 1580 1012 1361 1035 565 792 847 816 218 69 0 0 0 0
218 125 238 472 294 206 290 364 152 201 235 257 200 350 447 432 367 319 606 315 368 829 645 438 538 1179 881 1090 1322 1347 582 338 328 824 839 554 266 295 126 0 0 0 10
CIN
0 0 -2 0 0 0 -2 0 0 0 0 0 0 0 0 0 0 0 0 0 0 0 0 0 0 0 0 0 0 0 0 0 0 -1 0 0 0 0 0 0 0 0 0
0 -83 0 0 0 0 -1 0 0 0 0 0 0 0 0 0 0 0 0 0 0 0 0 0 0 0 0 0 0 0 0 0 0 0 0 0 0 0 0 0 0 0 0
-53 -67 0 -1 0 0 0 0 0 0 0 0 0 0 0 0 0 0 0 0 0 0 0 -1 -4 -1 0 -2 -2 0 -4 -2 -3 -3 -1 -10 -2 0 0 -1 0 0 0
-88 -39 -3 0 0 -6 -6 0 0 0 0 0 0 0 0 0 0 0 0 0 0 0 0 0 0 -25 -16 -10 -7 -5 -5 -2 -2 -2 -62 -36 -3 0 0 0 0 0 0
-79 -46 -15 0 0 0 0 0 0 0 0 0 0 0 0 0 0 0 0 0 0 -2 -18 -52 -64 -50 -53 -46 -26 -24 -21 -1 0 -35 -43 -34 -28 0 0 0 0 0 0
-56 -39 0 0 0 0 0 0 0 0 0 0 0 0 0 0 0 0 0 0 0 0 -29 -101 -134 -129 -87 -50 -46 -55 -30 -14 -65 -152 -96 -29 -15 0 0 0 0 0 0
-101 -17 -7 0 0 0 0 0 0 0 0 0 0 0 0 0 0 -2 0 0 0 0 -7 -68 -155 -144 -99 -73 -113 -126 -3 -37 -135 -151 -179 -175 -98 -37 -43 -1 0 -1 -2
-67 -11 -1 0 0 0 0 0 0 0 0 0 0 0 -2 -9 -13 -16 -10 -8 -6 -1 -7 -30 -62 -95 -146 -149 -199 -143 -14 -28 -139 -178 -180 -114 -23 -29 -84 -81 -84 -67 -40
-55 -44 -27 -1 -7 0 0 0 0 0 0 -1 0 0 -21 -33 -37 -24 -26 -33 -44 -43 -38 -37 -46 -52 -85 -122 -207 -81 -56 -166 0 -168 -303 -303 -88 -109 -84 -79 -42 -39 -37
-126 -117 -74 -140 -62 -26 -14 0 -1 0 -2 -1 0 -4 -42 -62 -48 -36 -42 -49 -66 -80 -62 -57 -50 -48 -38 -43 -66 -93 -189 0 0 0 0 -21 -289 -337 -276 -239 -202 -160 -103
-228 -182 -168 -212 -71 -89 -80 -36 -3 -5 -11 0 -11 -28 -49 -160 -118 -83 -86 -79 -82 -70 -77 -54 -37 -35 -37 -40 -38 -51 -127 0 0 0 0 -397 -403 -521 -496 -463 -435 -378 -315
0 -180 -211 -143 -98 -83 -108 -105 -54 -38 -36 -55 -45 -49 -120 -163 -167 -114 -117 -64 -57 -64 -33 -45 -47 -38 -29 -116 -151 -60 -148 0 0 0 0 -395 -400 -555 -580 -599 -601 0 0
-287 -168 -185 -171 -115 -125 -149 -144 -105 -92 -81 -89 -94 -99 -123 -127 -172 -159 -253 -292 -231 -184 -175 -134 -123 -125 -122 -135 -167 -182 -325 0 0 0 -706 -391 -403 -501 -512 -526 -525 -535 -554
-190 -187 -233 -277 -122 -162 -151 -129 -117 -102 -109 -115 -125 -152 -190 -153 -210 -251 -363 -265 -213 -198 -161 -193 -185 -176 -208 -204 -210 -188 -247 0 0 0 -360 -454 -372 -420 -478 -472 -471 -469 -467
-194 -239 -299 -210 -150 -281 -205 -140 -130 -118 -116 -112 -107 -130 -144 -119 -170 -277 -228 -233 -187 -171 -184 -211 -216 -146 -165 -198 -295 -256 -229 -210 0 0 -824 -435 -384 -332 -392 -413 -423 -425 -430
-126 -215 -183 -131 -156 -333 -188 -125 -133 -121 -109 -111 -117 -107 -98 -119 -144 -154 -233 -230 -171 -186 -174 -189 -156 -157 -166 -184 -359 -365 -448 -490 -630 -461 -796 -555 -316 -317 -315 -320 -354 -364 -366
-121 -95 -156 -151 -162 -141 -134 -114 -131 -117 -83 -106 -122 -136 -85 -137 -133 -121 -124 -153 -219 -334 -207 -146 -155 -213 -229 -166 -208 -297 -500 -491 -489 -582 -680 -705 -457 -305 -292 -265 -249 -234 -267
-130 -137 -117 -86 -122 -135 -138 -153 -128 -109 -105 -107 -144 -136 -75 -89 -148 -130 -126 -222 -257 -303 -213 -188 -202 -189 -238 -169 -188 -209 -232 -356 -403 -506 -569 -669 -573 -460 -358 -267 -245 -215 -197
-153 -160 -143 -127 -134 -182 -163 -143 -110 -117 -113 -102 -188 -174 -101 -76 -91 -195 -106 -132 -231 -411 -199 -180 -165 -241 -232 -197 -149 -238 -318 -314 -324 -286 -404 -520 -578 -544 -560 -409 -264 -233 -201
-186 -173 -169 -135 -168 -158 -143 -270 -127 -92 -131 -144 -168 -209 -123 -155 -101 -144 -121 -129 -243 -247 -101 -193 -174 -221 -167 -170 -155 -255 -289 -285 -333 -296 -324 -361 -412 -467 -523 -511 -418 -300 -237
-172 -55 0 -178 -332 -162 -122 -165 -162 -96 -231 -139 -157 -178 -154 -158 -164 -130 -117 -136 -186 -346 -88 -127 -203 -166 -156 -184 -236 -265 -297 -353 -348 -332 -407 -306 -342 -352 -381 -380 -443 -399 -357
0 -275 0 -204 -312 -202 -146 -163 -104 -141 -251 -290 -222 -148 -157 -136 -147 -136 -96 -114 -123 -229 -202 -199 -195 -159 -190 -200 -196 -323 -145 -143 -233 -303 -467 -344 -289 -360 -253 -230 -283 -286 -332
-167 -203 -156 -205 -227 -197 -272 -223 -139 -146 -186 -195 -199 -178 -166 -135 -131 -160 -101 -115 -154 -147 -139 -204 -242 -151 -147 -169 -174 -219 -153 -113 -313 -300 -249 -254 -267 -331 -277 -289 -251 -100 -147
-236 -264 -403 -263 -249 -208 -238 -224 -147 -80 -86 -126 -194 -121 -139 -144 -123 -186 -202 -166 -156 -175 -147 -193 -196 -162 -143 -97 -221 -192 -255 -258 -168 -179 -253 -215 -230 -143 -186 -250 0 0 0
-230 -198 -241 -198 -242 -180 -207 -218 -232 -169 -149 -139 -148 -76 -120 -121 -150 -107 -193 -210 -128 -143 -153 -159 -123 -91 -110 -104 -164 -106 -172 -158 -203 -176 -134 -157 -181 -220 -262 0 0 0 0
-235 -204 -208 -212 -221 -214 -212 -208 -244 -201 -138 -101 -142 -126 -136 -136 -125 -176 -125 -194 -201 -135 -173 -207 -192 -111 -147 -142 -128 -126 -174 -173 -186 -112 -135 -188 -221 -218 -257 0 0 0 -119
Wind_Speed
4 5 8 11 12 12 13 14 15 16 16 16 16 16 16 17 16 16 15 15 15 14 14 13 14 14 14 14 14 15 14 15 15 16 15 13 11 11 13 13 13 9 12
7 5 12 12 13 13 13 14 15 15 16 16 15 16 16 15 16 15 14 14 14 13 13 13 12 13 13 13 13 13 13 14 14 14 15 15 15 13 13 12 12 10 12
9 7 11 11 13 13 13 14 15 15 15 15 16 16 16 15 15 14 13 13 12 11 11 12 12 11 10 10 12 12 12 12 12 13 13 5 6 13 12 12 11 11 11
10 5 8 13 13 13 13 13 14 15 15 16 16 14 14 13 13 13 12 12 12 12 10 9 10 10 9 8 9 8 7 6 6 12 4 4 7 11 11 11 11 10 10
9 8 10 15 14 15 14 13 14 15 15 16 15 14 14 13 12 12 11 12 11 10 11 9 9 7 7 7 7 5 4 5 12 11 5 5 3 8 11 10 10 9 9
10 9 13 16 17 16 15 15 15 15 14 14 14 14 14 13 12 11 10 9 9 10 10 9 8 7 6 6 6 5 2 13 14 6 4 7 5 10 10 9 10 9 8
8 7 11 16 17 16 16 16 16 15 14 13 13 13 12 11 10 10 9 9 9 9 9 8 7 6 5 5 4 4 13 15 7 5 5 4 5 9 9 9 10 9 7
11 8 10 18 18 16 15 16 16 15 14 14 12 11 10 10 8 8 7 8 8 8 7 6 4 3 2 3 3 4 17 13 8 5 5 4 6 10 10 10 8 8 7
11 10 8 11 15 16 13 15 14 14 13 12 11 9 9 8 7 6 5 5 6 5 5 3 1 1 0 1 1 5 13 13 6 4 5 3 7 9 9 8 7 8 7
11 9 7 6 6 7 7 13 12 11 11 10 10 9 8 8 7 6 3 2 3 2 1 2 3 3 4 4 2 6 11 12 6 5 3 3 8 9 9 8 7 7 7
8 9 6 6 5 5 6 8 10 11 10 10 9 9 7 3 3 4 4 5 4 3 5 6 7 7 6 4 3 2 9 2 4 4 3 9 9 10 9 9 8 8 8
11 9 8 7 6 5 7 5 5 5 3 4 3 3 3 3 3 5 6 8 5 6 7 10 10 10 7 3 2 4 3 4 3 4 3 11 11 11 10 10 9 8 8
13 9 8 8 6 6 5 3 2 2 2 3 5 4 4 3 3 3 2 2 3 5 4 6 7 5 5 4 3 2 4 4 3 3 7 13 13 13 12 11 11 10 9
13 12 9 9 8 6 4 4 4 3 3 3 4 5 3 3 3 3 3 3 4 2 3 4 3 5 5 4 6 6 6 5 4 3 6 15 14 14 14 13 13 12 11
14 12 12 10 9 6 6 4 4 4 3 4 4 4 4 3 4 4 4 3 3 3 2 3 3 1 3 3 8 8 9 7 6 4 3 16 14 14 14 14 14 13 13
14 15 14 12 8 7 7 7 5 4 5 3 3 4 4 4 3 2 1 3 3 2 2 4 4 5 5 1 3 9 10 8 7 6 4 7 15 15 15 15 15 15 15
16 16 16 13 9 12 9 6 7 7 5 4 4 4 3 4 2 2 2 4 3 2 5 4 5 5 4 4 3 5 6 8 7 8 6 4 7 16 16 17 16 15 16
15 15 15 12 10 8 8 6 5 3 5 4 4 4 5 4 4 0 2 4 5 2 1 3 2 3 2 3 3 4 4 5 8 8 6 6 5 6 14 18 17 17 17
15 12 11 8 8 7 6 4 5 5 4 4 4 4 6 5 3 2 2 5 5 2 3 2 2 1 2 1 2 3 4 4 5 5 8 8 7 7 5 11 18 17 19
14 13 11 8 8 7 5 3 3 2 4 4 4 4 6 5 4 3 3 5 3 3 2 1 3 1 1 2 3 5 4 4 5 5 4 5 5 7 7 6 5 10 19
15 13 9 10 7 5 2 2 1 2 3 3 4 6 6 6 5 5 3 4 2 5 2 3 1 3 3 3 3 4 3 3 2 3 3 5 6 6 6 6 5 5 5
17 13 11 11 8 6 4 3 3 2 3 3 4 5 6 6 6 5 5 5 1 3 5 4 2 2 2 1 0 0 4 5 4 3 2 2 2 2 3 4 4 6 6
16 12 12 11 10 6 6 2 1 2 2 2 2 3 6 8 7 7 7 5 5 3 4 5 3 2 2 2 1 3 2 2 3 3 3 3 3 2 2 3 4 6 7
14 13 12 12 12 8 8 5 5 4 4 3 3 4 6 9 9 7 7 7 6 4 4 4 3 3 2 3 2 1 2 3 2 4 3 4 4 3 5 4 5 7 6
14 13 12 11 12 11 11 9 7 5 4 4 3 5 7 8 9 11 8 7 6 4 5 5 5 4 3 3 3 1 2 1 2 1 4 5 4 4 3 3 4 5 7
7 9 7 10 12 11 12 11 13 11 9 6 6 4 5 6 8 8 7 6 7 6 6 6 6 4 4 3 2 2 2 1 1 1 1 3 3 5 4 5 4 5 5
Wind_Direction
205 193 160 135 116 108 101 94 94 95 95 95 95 97 94 98 98 98 96 94 96 96 98 99 96 95 102 97 103 104 107 107 106 101 100 104 108 114 102 103 105 107 108
150 180 162 144 125 118 112 103 99 99 101 104 104 98 100 102 101 101 100 97 96 97 98 96 92 89 99 107 101 107 114 110 102 100 102 94 92 104 108 103 97 103 107
149 170 156 147 130 124 119 110 103 103 104 105 105 105 108 106 105 103 104 106 107 109 104 103 97 102 106 108 108 106 106 108 108 104 99 85 98 107 107 109 104 109 110
148 161 155 147 139 130 125 114 109 108 108 106 105 108 107 106 106 106 105 109 105 109 108 100 106 110 117 110 103 100 105 122 147 114 84 77 105 112 114 116 115 113 106
141 141 153 147 145 137 130 119 110 110 111 112 111 112 110 110 109 112 109 109 116 112 110 108 109 117 122 117 110 107 79 81 125 111 95 92 103 119 125 121 124 116 112
137 144 149 151 146 142 132 126 114 113 117 119 120 117 113 114 116 116 117 121 121 115 107 107 112 128 131 122 92 57 332 121 110 101 101 98 97 108 112 118 125 123 124
131 140 150 150 145 139 134 128 122 121 123 122 121 116 119 122 124 130 126 115 123 111 104 104 118 134 131 117 84 40 111 117 111 111 104 120 127 122 122 116 129 126 130
129 134 142 146 140 134 131 126 129 130 131 124 126 125 131 133 144 143 129 112 104 103 102 97 101 104 91 69 41 36 128 132 118 113 111 118 137 137 134 138 140 142 139
131 126 124 137 144 139 140 135 134 133 130 133 129 139 144 153 163 161 134 119 104 104 95 89 52 351 6 269 216 72 125 128 127 130 133 135 135 141 134 133 127 144 147
130 129 130 134 136 140 140 138 129 135 135 139 145 149 163 180 187 176 154 166 144 111 132 192 214 253 265 269 355 80 129 139 134 134 142 175 161 154 155 157 160 161 161
138 145 139 131 142 157 141 146 139 147 149 156 150 158 174 216 221 205 194 220 211 191 263 254 252 249 242 225 237 167 150 192 144 149 169 172 166 161 162 168 174 176 177
157 160 152 151 158 155 162 136 148 165 160 154 165 175 203 233 243 233 232 235 207 266 261 269 259 252 248 250 252 234 165 186 173 168 186 178 174 172 175 177 182 185 186
163 162 166 159 164 167 160 151 166 168 174 183 183 194 222 258 272 285 298 286 304 234 258 248 259 244 222 198 224 205 191 189 200 194 190 187 186 182 187 190 191 194 197
167 170 171 168 171 189 149 164 172 186 196 216 210 198 205 246 252 250 263 291 294 287 263 199 215 242 237 190 212 187 190 199 201 201 206 194 195 193 195 201 202 202 205
167 166 179 179 185 179 155 159 181 202 220 214 200 194 173 196 235 233 255 278 296 303 207 159 172 220 262 260 204 194 190 208 207 201 198 203 205 209 205 208 212 214 214
170 171 178 186 188 156 177 188 195 185 212 205 213 180 173 204 225 207 233 258 290 294 335 11 349 329 315 358 160 175 189 199 205 197 202 209 210 215 219 217 220 222 225
173 174 176 177 180 172 181 191 185 193 190 192 208 215 144 169 201 156 331 306 278 329 27 354 320 308 313 304 165 184 205 206 207 202 200 207 217 219 224 227 227 227 230
164 169 177 178 175 167 167 172 166 169 184 191 191 203 177 174 184 63 1 297 295 37 340 319 323 25 33 31 287 247 220 205 219 214 198 203 208 213 228 230 233 234 235
163 166 172 156 166 165 162 159 150 168 171 207 198 202 198 203 208 159 275 297 306 333 325 344 304 117 232 267 283 246 245 219 226 221 207 214 211 213 218 228 232 235 240
162 170 163 160 168 167 162 169 141 150 197 179 208 203 201 206 195 192 254 288 336 288 360 357 295 281 313 310 320 313 275 244 232 240 215 221 207 224 221 221 220 237 239
164 163 168 165 176 157 143 159 157 207 159 193 211 222 214 212 195 197 241 279 328 278 217 276 271 17 326 11 11 320 312 332 236 248 206 240 223 207 217 222 212 230 239
169 173 166 179 168 173 162 165 154 187 229 171 213 215 215 219 206 199 216 242 212 278 294 284 283 336 291 352 151 15 344 334 349 357 357 288 315 356 263 268 250 251 254
171 169 170 172 172 172 175 122 59 23 330 317 193 224 216 220 220 197 205 217 220 230 253 243 253 181 271 310 152 149 9 261 324 331 345 10 357 269 346 327 284 255 246
177 176 169 170 171 174 172 168 177 185 227 237 218 215 210 219 227 213 206 206 218 215 240 249 230 206 173 262 331 358 206 176 195 327 328 334 341 343 340 334 320 306 291
178 179 174 171 175 179 182 183 190 206 230 249 225 223 222 217 221 224 210 208 205 216 228 240 248 207 208 201 199 339 0 339 80 116 296 318 330 312 284 263 289 311 331
181 179 175 174 185 186 190 190 194 195 211 234 247 220 211 225 229 225 220 209 215 210 215 221 236 228 215 237 187 186 186 188 260 96 285 295 267 299 302 309 329 328 334